Location: C.E.K. Mees Observatory
(42.7003°N, 77.4088°W)
Time: 13:59:42
(UTC-04:00)

Vanguard 1 - Visible Passes

Search period start: 21 September 2018 00:00
Search period end: 01 October 2018 00:00
Orbit: 650 x 3833 km, 34.2° (Epoch: 20 September)

Date Brightness Start Highest point End Pass type
(mag) Time Alt. Az. Time Alt. Az. Time Alt. Az.
21 Sep 11.9 05:26:49 10° S 05:30:12 17° SE 05:34:30 10° ESE visible
22 Sep 11.7 05:46:28 10° SSW 05:50:37 23° SSE 05:56:22 10° E visible
23 Sep 11.5 06:06:34 10° SW 06:11:08 29° SSE 06:17:54 10° E visible
24 Sep 11.3 06:26:54 10° SW 06:31:45 35° SSE 06:39:16 10° E visible
25 Sep 11.7 04:32:47 13° SSE 04:33:28 13° SE 04:36:04 10° ESE visible
26 Sep 11.2 04:52:44 17° S 04:53:57 19° SSE 04:58:00 10° ESE visible
27 Sep 10.9 05:12:42 20° S 05:14:31 25° SSE 05:19:27 10° ESE visible
28 Sep 10.9 05:32:37 19° SSW 05:35:10 30° SSE 05:40:43 10° ESE visible
29 Sep 10.7 05:52:33 16° SW 05:55:52 34° SSE 06:01:53 10° ESE visible
30 Sep 11.9 03:59:45 13° ESE 03:59:45 13° ESE 04:00:34 10° ESE visible
30 Sep 10.7 06:12:28 11° WSW 06:16:38 36° S 06:22:58 10° ESE visible
